| time (UTC) | temp C | wind direction | speed KPH | gust KPH | rain 1hr cm | rain 24hr cm | rain mn cm | humidity % | barometer mb |
| 20260507054104 | 21 | 77 | 3.2 | 9.7 | 0.00 | 0.00 | 0.00 | 49 | 1022.8 |
| 20260507053604 | 22 | 77 | 3.2 | 9.7 | 0.00 | 0.00 | 0.00 | 49 | 1022.7 |
| 20260507053104 | 22 | 77 | 3.2 | 9.7 | 0.00 | 0.00 | 0.00 | 48 | 1022.7 |
| 20260507052104 | 22 | 77 | 3.2 | 9.7 | 0.00 | 0.00 | 0.00 | 47 | 1022.5 |
| 20260507051603 | 22 | 77 | 3.2 | 9.7 | 0.00 | 0.00 | 0.00 | 48 | 1022.7 |
| 20260507051104 | 22 | 77 | 3.2 | 9.7 | 0.00 | 0.00 | 0.00 | 48 | 1022.7 |
| 20260507050604 | 22 | 77 | 3.2 | 9.7 | 0.00 | 0.00 | 0.00 | 49 | 1022.7 |
| 20260507050104 | 22 | 77 | 3.2 | 9.7 | 0.00 | 0.00 | 0.00 | 49 | 1022.7 |
| 20260507045104 | 23 | 77 | 3.2 | 9.7 | 0.00 | 0.00 | 0.00 | 45 | 1022.6 |
| 20260507044604 | 23 | 77 | 3.2 | 9.7 | 0.00 | 0.00 | 0.00 | 45 | 1022.7 |
| 20260507044104 | 23 | 77 | 3.2 | 9.7 | 0.00 | 0.00 | 0.00 | 43 | 1022.7 |
| 20260507043603 | 23 | 77 | 3.2 | 9.7 | 0.00 | 0.00 | 0.00 | 43 | 1022.6 |
| 20260507043102 | 23 | 77 | 3.2 | 9.7 | 0.00 | 0.00 | 0.00 | 43 | 1022.5 |
| 20260507042103 | 23 | 77 | 3.2 | 9.7 | 0.00 | 0.00 | 0.00 | 44 | 1022.5 |
| 20260507041603 | 23 | 77 | 3.2 | 9.7 | 0.00 | 0.00 | 0.00 | 45 | 1022.5 |
| 20260507040603 | 22 | 77 | 3.2 | 9.7 | 0.00 | 0.00 | 0.00 | 46 | 1022.5 |
| 20260507035603 | 23 | 77 | 3.2 | 9.7 | 0.00 | 0.00 | 0.00 | 47 | 1022.4 |
| 20260507035103 | 23 | 77 | 3.2 | 9.7 | 0.00 | 0.00 | 0.00 | 45 | 1022.3 |
| 20260507034603 | 23 | 77 | 3.2 | 9.7 | 0.00 | 0.00 | 0.00 | 44 | 1022.4 |
| 20260507034103 | 23 | 77 | 3.2 | 9.7 | 0.00 | 0.00 | 0.00 | 44 | 1022.4 |
| 20260507033603 | 23 | 77 | 3.2 | 9.7 | 0.00 | 0.00 | 0.00 | 45 | 1022.4 |
| 20260507033102 | 23 | 77 | 3.2 | 9.7 | 0.00 | 0.00 | 0.00 | 45 | 1022.3 |
| 20260507032102 | 24 | 77 | 3.2 | 9.7 | 0.00 | 0.00 | 0.00 | 43 | 1022.2 |
| 20260507031603 | 24 | 77 | 3.2 | 9.7 | 0.00 | 0.00 | 0.00 | 43 | 1022.1 |
| 20260507031103 | 24 | 77 | 3.2 | 9.7 | 0.00 | 0.00 | 0.00 | 43 | 1022.1 |
| 20260507030603 | 24 | 77 | 3.2 | 9.7 | 0.00 | 0.00 | 0.00 | 43 | 1022.0 |
| 20260507025602 | 24 | 77 | 3.2 | 9.7 | 0.00 | 0.00 | 0.00 | 42 | 1021.9 |
| 20260507025103 | 24 | 77 | 3.2 | 9.7 | 0.00 | 0.00 | 0.00 | 41 | 1021.9 |
| 20260507024103 | 24 | 77 | 3.2 | 9.7 | 0.00 | 0.00 | 0.00 | 42 | 1021.8 |
| 20260507023103 | 24 | 77 | 3.2 | 9.7 | 0.00 | 0.00 | 0.00 | 42 | 1021.7 |
| 20260507022603 | 24 | 77 | 3.2 | 9.7 | 0.00 | 0.00 | 0.00 | 43 | 1021.6 |
| 20260507021103 | 26 | 77 | 3.2 | 9.7 | 0.00 | 0.00 | 0.00 | 40 | 1021.3 |
| 20260507020602 | 26 | 77 | 3.2 | 9.7 | 0.00 | 0.00 | 0.00 | 37 | 1021.2 |
| 20260507015602 | 26 | 77 | 3.2 | 9.7 | 0.00 | 0.00 | 0.00 | 36 | 1021.2 |
| 20260507015104 | 26 | 77 | 3.2 | 9.7 | 0.00 | 0.00 | 0.00 | 36 | 1021.1 |
| 20260507014103 | 27 | 77 | 3.2 | 9.7 | 0.00 | 0.00 | 0.00 | 36 | 1020.9 |
| 20260507013602 | 27 | 77 | 3.2 | 9.7 | 0.00 | 0.00 | 0.00 | 36 | 1020.9 |
| 20260507012603 | 27 | 77 | 3.2 | 9.7 | 0.00 | 0.00 | 0.00 | 35 | 1020.7 |
| 20260507012103 | 27 | 77 | 3.2 | 9.7 | 0.00 | 0.00 | 0.00 | 35 | 1020.6 |
| 20260507011103 | 27 | 77 | 3.2 | 9.7 | 0.00 | 0.00 | 0.00 | 35 | 1020.5 |
| 20260507010603 | 27 | 77 | 3.2 | 9.7 | 0.00 | 0.00 | 0.00 | 35 | 1020.4 |
| 20260507005603 | 28 | 77 | 3.2 | 9.7 | 0.00 | 0.00 | 0.00 | 34 | 1020.3 |
| 20260507005103 | 28 | 77 | 3.2 | 9.7 | 0.00 | 0.00 | 0.00 | 34 | 1020.3 |
| 20260507004602 | 28 | 77 | 3.2 | 9.7 | 0.00 | 0.00 | 0.00 | 34 | 1020.3 |
| 20260507004103 | 28 | 77 | 3.2 | 9.7 | 0.00 | 0.00 | 0.00 | 34 | 1020.3 |
| 20260507003603 | 28 | 77 | 3.2 | 9.7 | 0.00 | 0.00 | 0.00 | 34 | 1020.2 |
| 20260507003103 | 28 | 77 | 3.2 | 9.7 | 0.00 | 0.00 | 0.00 | 33 | 1020.2 |
| 20260507002603 | 28 | 77 | 3.2 | 9.7 | 0.00 | 0.00 | 0.00 | 33 | 1020.1 |
| 20260507002103 | 28 | 77 | 3.2 | 9.7 | 0.00 | 0.00 | 0.00 | 33 | 1020.0 |
| 20260507001603 | 28 | 77 | 3.2 | 9.7 | 0.00 | 0.00 | 0.00 | 33 | 1019.9 |
| 20260507001102 | 29 | 77 | 3.2 | 9.7 | 0.00 | 0.00 | 0.00 | 33 | 1019.9 |
| 20260507000602 | 29 | 77 | 3.2 | 9.7 | 0.00 | 0.00 | 0.00 | 33 | 1019.9 |
| 20260506235102 | 29 | 77 | 3.2 | 9.7 | 0.00 | 0.00 | 0.00 | 32 | 1019.8 |
| 20260506234603 | 29 | 77 | 3.2 | 9.7 | 0.00 | 0.00 | 0.00 | 32 | 1019.9 |
| 20260506233103 | 30 | 77 | 3.2 | 9.7 | 0.00 | 0.00 | 0.00 | 32 | 1019.8 |
| 20260506232602 | 30 | 77 | 3.2 | 9.7 | 0.00 | 0.00 | 0.00 | 32 | 1019.8 |
| 20260506232103 | 29 | 77 | 3.2 | 9.7 | 0.00 | 0.00 | 0.00 | 32 | 1019.8 |
| 20260506231603 | 30 | 77 | 3.2 | 9.7 | 0.00 | 0.00 | 0.00 | 32 | 1019.7 |
| 20260506231103 | 30 | 77 | 3.2 | 9.7 | 0.00 | 0.00 | 0.00 | 32 | 1019.6 |
| 20260506230603 | 30 | 77 | 3.2 | 9.7 | 0.00 | 0.00 | 0.00 | 32 | 1019.7 |
| 20260506230103 | 30 | 77 | 3.2 | 9.7 | 0.00 | 0.00 | 0.00 | 32 | 1019.6 |
| 20260506225603 | 30 | 77 | 3.2 | 9.7 | 0.00 | 0.00 | 0.00 | 32 | 1019.5 |
| 20260506225103 | 30 | 77 | 3.2 | 9.7 | 0.00 | 0.00 | 0.00 | 31 | 1019.3 |
| 20260506224604 | 30 | 77 | 3.2 | 9.7 | 0.00 | 0.00 | 0.00 | 32 | 1019.3 |
| 20260506224103 | 30 | 77 | 3.2 | 9.7 | 0.00 | 0.00 | 0.00 | 31 | 1019.3 |
| 20260506223103 | 30 | 77 | 3.2 | 9.7 | 0.00 | 0.00 | 0.00 | 31 | 1019.4 |
| 20260506222603 | 30 | 77 | 3.2 | 9.7 | 0.00 | 0.00 | 0.00 | 31 | 1019.4 |
| 20260506221603 | 30 | 77 | 3.2 | 9.7 | 0.00 | 0.00 | 0.00 | 31 | 1019.5 |
| 20260506221103 | 30 | 77 | 3.2 | 9.7 | 0.00 | 0.00 | 0.00 | 31 | 1019.5 |
| 20260506220603 | 30 | 77 | 3.2 | 9.7 | 0.00 | 0.00 | 0.00 | 31 | 1019.5 |
| 20260506215603 | 30 | 77 | 3.2 | 9.7 | 0.00 | 0.00 | 0.00 | 31 | 1019.6 |
| 20260506215103 | 30 | 77 | 3.2 | 9.7 | 0.00 | 0.00 | 0.00 | 31 | 1019.6 |
| 20260506214603 | 30 | 77 | 3.2 | 9.7 | 0.00 | 0.00 | 0.00 | 31 | 1019.6 |
| 20260506214103 | 30 | 77 | 3.2 | 9.7 | 0.00 | 0.00 | 0.00 | 32 | 1019.7 |
| 20260506213603 | 30 | 77 | 3.2 | 9.7 | 0.00 | 0.00 | 0.00 | 32 | 1019.7 |
| 20260506213103 | 30 | 77 | 3.2 | 9.7 | 0.00 | 0.00 | 0.00 | 31 | 1019.8 |
| 20260506212603 | 30 | 77 | 3.2 | 9.7 | 0.00 | 0.00 | 0.00 | 31 | 1019.8 |
| 20260506212102 | 30 | 77 | 3.2 | 9.7 | 0.00 | 0.00 | 0.00 | 32 | 1019.9 |
| 20260506211102 | 29 | 77 | 3.2 | 9.7 | 0.00 | 0.00 | 0.00 | 32 | 1020.0 |
| 20260506210602 | 29 | 77 | 3.2 | 9.7 | 0.00 | 0.00 | 0.00 | 32 | 1020.0 |
| 20260506210103 | 29 | 77 | 3.2 | 9.7 | 0.00 | 0.00 | 0.00 | 32 | 1020.0 |
| 20260506205603 | 30 | 77 | 3.2 | 9.7 | 0.00 | 0.00 | 0.00 | 33 | 1020.1 |
| 20260506205103 | 30 | 77 | 3.2 | 9.7 | 0.00 | 0.00 | 0.00 | 32 | 1020.2 |
| 20260506204103 | 30 | 77 | 3.2 | 9.7 | 0.00 | 0.00 | 0.00 | 33 | 1020.3 |
| 20260506203602 | 30 | 77 | 3.2 | 9.7 | 0.00 | 0.00 | 0.00 | 32 | 1020.4 |
| 20260506203103 | 29 | 77 | 3.2 | 9.7 | 0.00 | 0.00 | 0.00 | 32 | 1020.4 |
| 20260506202603 | 29 | 77 | 3.2 | 9.7 | 0.00 | 0.00 | 0.00 | 33 | 1020.4 |
| 20260506202102 | 29 | 77 | 3.2 | 9.7 | 0.00 | 0.00 | 0.00 | 33 | 1020.5 |
| 20260506201103 | 29 | 77 | 3.2 | 9.7 | 0.00 | 0.00 | 0.00 | 33 | 1020.7 |
| 20260506200603 | 29 | 77 | 3.2 | 9.7 | 0.00 | 0.00 | 0.00 | 33 | 1020.8 |
| 20260506195603 | 28 | 77 | 3.2 | 9.7 | 0.00 | 0.00 | 0.00 | 33 | 1020.9 |
| 20260506195103 | 29 | 77 | 3.2 | 9.7 | 0.00 | 0.00 | 0.00 | 33 | 1020.9 |
| 20260506194603 | 28 | 77 | 3.2 | 9.7 | 0.00 | 0.00 | 0.00 | 34 | 1021.1 |
| 20260506194103 | 28 | 77 | 3.2 | 9.7 | 0.00 | 0.00 | 0.00 | 34 | 1021.1 |
| 20260506193603 | 28 | 77 | 3.2 | 9.7 | 0.00 | 0.00 | 0.00 | 33 | 1021.2 |
| 20260506193103 | 28 | 77 | 3.2 | 9.7 | 0.00 | 0.00 | 0.00 | 34 | 1021.3 |
| 20260506192602 | 28 | 77 | 3.2 | 9.7 | 0.00 | 0.00 | 0.00 | 34 | 1021.4 |
| 20260506192103 | 28 | 77 | 3.2 | 9.7 | 0.00 | 0.00 | 0.00 | 33 | 1021.4 |
| 20260506191603 | 28 | 77 | 3.2 | 9.7 | 0.00 | 0.00 | 0.00 | 34 | 1021.4 |
| 20260506191103 | 28 | 77 | 3.2 | 9.7 | 0.00 | 0.00 | 0.00 | 34 | 1021.4 |
| 20260506190603 | 28 | 77 | 3.2 | 9.7 | 0.00 | 0.00 | 0.00 | 34 | 1021.6 |
| 20260506185603 | 28 | 77 | 3.2 | 9.7 | 0.00 | 0.00 | 0.00 | 34 | 1021.7 |
| 20260506185102 | 27 | 77 | 3.2 | 9.7 | 0.00 | 0.00 | 0.00 | 35 | 1021.8 |
| 20260506184603 | 28 | 77 | 3.2 | 9.7 | 0.00 | 0.00 | 0.00 | 34 | 1021.8 |
| 20260506183603 | 27 | 77 | 3.2 | 9.7 | 0.00 | 0.00 | 0.00 | 35 | 1021.9 |
| 20260506183103 | 27 | 77 | 3.2 | 9.7 | 0.00 | 0.00 | 0.00 | 35 | 1022.0 |
| 20260506182603 | 27 | 77 | 3.2 | 9.7 | 0.00 | 0.00 | 0.00 | 35 | 1022.0 |
| 20260506182103 | 27 | 77 | 3.2 | 9.7 | 0.00 | 0.00 | 0.00 | 35 | 1022.1 |
| 20260506181603 | 27 | 77 | 3.2 | 9.7 | 0.00 | 0.00 | 0.00 | 35 | 1022.1 |
| 20260506181104 | 27 | 77 | 3.2 | 9.7 | 0.00 | 0.00 | 0.00 | 35 | 1022.2 |
| 20260506180603 | 27 | 77 | 3.2 | 9.7 | 0.00 | 0.00 | 0.00 | 35 | 1022.2 |
| 20260506180103 | 27 | 77 | 3.2 | 9.7 | 0.00 | 0.00 | 0.00 | 35 | 1022.2 |
| 20260506175103 | 27 | 77 | 3.2 | 9.7 | 0.00 | 0.00 | 0.00 | 37 | 1022.3 |
| 20260506174103 | 27 | 77 | 3.2 | 9.7 | 0.00 | 0.00 | 0.00 | 37 | 1022.3 |
| 20260506173103 | 27 | 77 | 3.2 | 9.7 | 0.00 | 0.00 | 0.00 | 36 | 1022.3 |
| 20260506172603 | 26 | 77 | 3.2 | 9.7 | 0.00 | 0.00 | 0.00 | 37 | 1022.4 |
| 20260506172103 | 26 | 77 | 3.2 | 9.7 | 0.00 | 0.00 | 0.00 | 36 | 1022.5 |
| 20260506171603 | 26 | 77 | 3.2 | 9.7 | 0.00 | 0.00 | 0.00 | 37 | 1022.5 |
| 20260506171103 | 26 | 77 | 3.2 | 9.7 | 0.00 | 0.00 | 0.00 | 36 | 1022.5 |
| 20260506170603 | 26 | 77 | 3.2 | 9.7 | 0.00 | 0.00 | 0.00 | 36 | 1022.5 |
| 20260506170103 | 26 | 77 | 3.2 | 9.7 | 0.00 | 0.00 | 0.00 | 37 | 1022.5 |
| 20260506165602 | 26 | 77 | 3.2 | 9.7 | 0.00 | 0.00 | 0.00 | 37 | 1022.6 |
| 20260506164103 | 26 | 77 | 3.2 | 9.7 | 0.00 | 0.00 | 0.00 | 38 | 1022.7 |
| 20260506163603 | 26 | 77 | 3.2 | 9.7 | 0.00 | 0.00 | 0.00 | 37 | 1022.8 |
| 20260506163103 | 26 | 77 | 3.2 | 9.7 | 0.00 | 0.00 | 0.00 | 37 | 1022.7 |
| 20260506162603 | 25 | 77 | 3.2 | 9.7 | 0.00 | 0.00 | 0.00 | 40 | 1022.8 |
| 20260506162103 | 25 | 77 | 3.2 | 9.7 | 0.00 | 0.00 | 0.00 | 39 | 1022.8 |
| 20260506161603 | 25 | 77 | 3.2 | 9.7 | 0.00 | 0.00 | 0.00 | 40 | 1022.8 |
| 20260506161103 | 25 | 77 | 3.2 | 9.7 | 0.00 | 0.00 | 0.00 | 41 | 1022.9 |
| 20260506160103 | 25 | 77 | 3.2 | 9.7 | 0.00 | 0.00 | 0.00 | 42 | 1022.9 |
| 20260506155603 | 25 | 77 | 3.2 | 9.7 | 0.00 | 0.00 | 0.00 | 41 | 1022.8 |
| 20260506155102 | 24 | 77 | 3.2 | 9.7 | 0.00 | 0.00 | 0.00 | 42 | 1022.9 |
| 20260506154603 | 24 | 77 | 3.2 | 9.7 | 0.00 | 0.00 | 0.00 | 43 | 1022.8 |
| 20260506154103 | 24 | 77 | 3.2 | 9.7 | 0.00 | 0.00 | 0.00 | 44 | 1022.9 |
| 20260506153603 | 24 | 77 | 3.2 | 9.7 | 0.00 | 0.00 | 0.00 | 46 | 1022.8 |
| 20260506153103 | 23 | 77 | 3.2 | 9.7 | 0.00 | 0.00 | 0.00 | 46 | 1022.8 |
| 20260506152103 | 23 | 77 | 3.2 | 9.7 | 0.00 | 0.00 | 0.00 | 48 | 1022.9 |
| 20260506151603 | 23 | 77 | 3.2 | 9.7 | 0.00 | 0.00 | 0.00 | 49 | 1022.8 |
| 20260506151103 | 22 | 77 | 3.2 | 9.7 | 0.00 | 0.00 | 0.00 | 49 | 1022.8 |
| 20260506150602 | 22 | 77 | 3.2 | 9.7 | 0.00 | 0.00 | 0.00 | 51 | 1022.8 |
| 20260506145603 | 21 | 77 | 3.2 | 9.7 | 0.00 | 0.00 | 0.00 | 53 | 1022.8 |
| 20260506145103 | 20 | 77 | 3.2 | 9.7 | 0.00 | 0.00 | 0.00 | 54 | 1022.8 |
| 20260506144603 | 20 | 77 | 3.2 | 9.7 | 0.00 | 0.00 | 0.00 | 54 | 1022.8 |
| 20260506144103 | 20 | 77 | 3.2 | 9.7 | 0.00 | 0.00 | 0.00 | 56 | 1022.8 |
| 20260506143103 | 19 | 77 | 3.2 | 9.7 | 0.00 | 0.00 | 0.00 | 57 | 1022.8 |
| 20260506142603 | 19 | 77 | 3.2 | 9.7 | 0.00 | 0.00 | 0.00 | 57 | 1022.9 |
| 20260506142104 | 18 | 77 | 3.2 | 9.7 | 0.00 | 0.00 | 0.00 | 58 | 1022.9 |
| 20260506141103 | 18 | 77 | 3.2 | 9.7 | 0.00 | 0.00 | 0.00 | 59 | 1022.9 |
| 20260506140603 | 18 | 77 | 3.2 | 9.7 | 0.00 | 0.00 | 0.00 | 60 | 1022.9 |
| 20260506135603 | 17 | 77 | 3.2 | 9.7 | 0.00 | 0.00 | 0.00 | 62 | 1022.9 |
| 20260506135104 | 17 | 77 | 3.2 | 9.7 | 0.00 | 0.00 | 0.00 | 64 | 1022.9 |
| 20260506134603 | 17 | 77 | 3.2 | 9.7 | 0.00 | 0.00 | 0.00 | 63 | 1022.8 |
| 20260506134103 | 16 | 77 | 3.2 | 9.7 | 0.00 | 0.00 | 0.00 | 64 | 1022.8 |
| 20260506133103 | 16 | 77 | 3.2 | 9.7 | 0.00 | 0.00 | 0.00 | 67 | 1022.8 |
| 20260506132604 | 16 | 77 | 3.2 | 9.7 | 0.00 | 0.00 | 0.00 | 66 | 1022.8 |
| 20260506131603 | 16 | 77 | 3.2 | 9.7 | 0.00 | 0.00 | 0.00 | 66 | 1022.8 |
| 20260506130603 | 16 | 77 | 3.2 | 9.7 | 0.00 | 0.00 | 0.00 | 66 | 1022.7 |
| 20260506130103 | 15 | 77 | 3.2 | 9.7 | 0.00 | 0.00 | 0.00 | 65 | 1022.7 |
| 20260506125603 | 15 | 77 | 3.2 | 9.7 | 0.00 | 0.00 | 0.00 | 66 | 1022.7 |
| 20260506124602 | 15 | 77 | 3.2 | 9.7 | 0.00 | 0.00 | 0.00 | 68 | 1022.7 |
| 20260506124103 | 15 | 77 | 3.2 | 9.7 | 0.00 | 0.00 | 0.00 | 69 | 1022.6 |
| 20260506123603 | 15 | 77 | 3.2 | 9.7 | 0.00 | 0.00 | 0.00 | 69 | 1022.6 |
| 20260506123103 | 15 | 77 | 3.2 | 9.7 | 0.00 | 0.00 | 0.00 | 68 | 1022.5 |
| 20260506122603 | 15 | 77 | 3.2 | 9.7 | 0.00 | 0.00 | 0.00 | 70 | 1022.5 |
| 20260506122103 | 14 | 77 | 3.2 | 9.7 | 0.00 | 0.00 | 0.00 | 70 | 1022.5 |
| 20260506121603 | 14 | 77 | 3.2 | 9.7 | 0.00 | 0.00 | 0.00 | 71 | 1022.5 |
| 20260506121103 | 15 | 77 | 3.2 | 9.7 | 0.00 | 0.00 | 0.00 | 71 | 1022.6 |
| 20260506120602 | 15 | 77 | 3.2 | 9.7 | 0.00 | 0.00 | 0.00 | 68 | 1022.5 |
| 20260506115603 | 16 | 77 | 3.2 | 9.7 | 0.00 | 0.00 | 0.00 | 66 | 1022.4 |
| 20260506115103 | 16 | 77 | 3.2 | 9.7 | 0.00 | 0.00 | 0.00 | 67 | 1022.3 |
| 20260506114603 | 16 | 77 | 3.2 | 9.7 | 0.00 | 0.00 | 0.00 | 66 | 1022.3 |
| 20260506114103 | 16 | 77 | 3.2 | 9.7 | 0.00 | 0.00 | 0.00 | 66 | 1022.3 |
| 20260506113603 | 16 | 77 | 3.2 | 9.7 | 0.00 | 0.00 | 0.00 | 66 | 1022.3 |
| 20260506113103 | 16 | 77 | 3.2 | 9.7 | 0.00 | 0.00 | 0.00 | 66 | 1022.3 |
| 20260506112104 | 16 | 77 | 3.2 | 9.7 | 0.00 | 0.00 | 0.00 | 65 | 1022.2 |
| 20260506111603 | 16 | 77 | 3.2 | 9.7 | 0.00 | 0.00 | 0.00 | 64 | 1022.1 |
| 20260506111103 | 16 | 77 | 3.2 | 9.7 | 0.00 | 0.00 | 0.00 | 64 | 1022.0 |
| 20260506110603 | 16 | 77 | 3.2 | 9.7 | 0.00 | 0.00 | 0.00 | 64 | 1021.9 |
| 20260506110103 | 16 | 77 | 3.2 | 9.7 | 0.00 | 0.00 | 0.00 | 64 | 1021.9 |
| 20260506105103 | 16 | 77 | 3.2 | 9.7 | 0.00 | 0.00 | 0.00 | 65 | 1021.8 |
| 20260506104603 | 16 | 77 | 3.2 | 9.7 | 0.00 | 0.00 | 0.00 | 64 | 1021.8 |
| 20260506104103 | 16 | 77 | 3.2 | 9.7 | 0.00 | 0.00 | 0.00 | 65 | 1021.8 |
| 20260506103603 | 16 | 77 | 3.2 | 9.7 | 0.00 | 0.00 | 0.00 | 64 | 1021.8 |
| 20260506103103 | 16 | 77 | 3.2 | 9.7 | 0.00 | 0.00 | 0.00 | 64 | 1021.8 |
| 20260506102603 | 16 | 77 | 3.2 | 9.7 | 0.00 | 0.00 | 0.00 | 64 | 1021.8 |
| 20260506102103 | 16 | 77 | 3.2 | 9.7 | 0.00 | 0.00 | 0.00 | 64 | 1021.8 |
| 20260506101603 | 17 | 77 | 3.2 | 9.7 | 0.00 | 0.00 | 0.00 | 64 | 1021.8 |
| 20260506101103 | 17 | 77 | 3.2 | 9.7 | 0.00 | 0.00 | 0.00 | 63 | 1021.7 |
| 20260506100603 | 17 | 77 | 3.2 | 9.7 | 0.00 | 0.00 | 0.00 | 62 | 1021.8 |
| 20260506095603 | 17 | 77 | 3.2 | 9.7 | 0.00 | 0.00 | 0.00 | 61 | 1021.8 |
| 20260506095103 | 17 | 77 | 3.2 | 9.7 | 0.00 | 0.00 | 0.00 | 61 | 1021.7 |
| 20260506093603 | 17 | 77 | 3.2 | 9.7 | 0.00 | 0.00 | 0.00 | 62 | 1021.7 |
| 20260506093103 | 17 | 77 | 3.2 | 9.7 | 0.00 | 0.00 | 0.00 | 61 | 1021.7 |
| 20260506092603 | 17 | 77 | 3.2 | 9.7 | 0.00 | 0.00 | 0.00 | 61 | 1021.7 |
| 20260506092103 | 17 | 77 | 3.2 | 9.7 | 0.00 | 0.00 | 0.00 | 61 | 1021.6 |
| 20260506090603 | 17 | 77 | 3.2 | 9.7 | 0.00 | 0.00 | 0.00 | 63 | 1021.7 |
| 20260506090103 | 17 | 77 | 3.2 | 9.7 | 0.00 | 0.00 | 0.00 | 63 | 1021.8 |
| 20260506085603 | 17 | 77 | 3.2 | 9.7 | 0.00 | 0.00 | 0.00 | 63 | 1021.8 |
| 20260506085103 | 17 | 77 | 3.2 | 9.7 | 0.00 | 0.00 | 0.00 | 63 | 1021.8 |
| 20260506084603 | 18 | 77 | 3.2 | 9.7 | 0.00 | 0.00 | 0.00 | 62 | 1021.8 |
| 20260506084103 | 18 | 77 | 3.2 | 9.7 | 0.00 | 0.00 | 0.00 | 59 | 1021.8 |
| 20260506083603 | 18 | 77 | 3.2 | 9.7 | 0.00 | 0.00 | 0.00 | 58 | 1021.7 |
| 20260506083104 | 18 | 77 | 3.2 | 9.7 | 0.00 | 0.00 | 0.00 | 58 | 1021.7 |
| 20260506082603 | 18 | 77 | 3.2 | 9.7 | 0.00 | 0.00 | 0.00 | 58 | 1021.8 |
| 20260506082103 | 18 | 77 | 3.2 | 9.7 | 0.00 | 0.00 | 0.00 | 57 | 1021.8 |
| 20260506081603 | 18 | 77 | 3.2 | 9.7 | 0.00 | 0.00 | 0.00 | 58 | 1021.8 |
| 20260506081102 | 18 | 77 | 3.2 | 9.7 | 0.00 | 0.00 | 0.00 | 58 | 1021.8 |
| 20260506080603 | 18 | 77 | 3.2 | 9.7 | 0.00 | 0.00 | 0.00 | 57 | 1021.8 |
| 20260506080103 | 18 | 77 | 3.2 | 9.7 | 0.00 | 0.00 | 0.00 | 57 | 1021.8 |
| 20260506073102 | 19 | 77 | 3.2 | 9.7 | 0.00 | 0.00 | 0.00 | 57 | 1021.9 |
| 20260506072603 | 19 | 77 | 3.2 | 9.7 | 0.00 | 0.00 | 0.00 | 57 | 1022.0 |
| 20260506072103 | 19 | 77 | 3.2 | 9.7 | 0.00 | 0.00 | 0.00 | 57 | 1022.0 |
| 20260506071603 | 19 | 77 | 3.2 | 9.7 | 0.00 | 0.00 | 0.00 | 56 | 1022.0 |
| 20260506070103 | 18 | 77 | 3.2 | 9.7 | 0.00 | 0.00 | 0.00 | 57 | 1022.1 |
| 20260506062103 | 20 | 77 | 3.2 | 9.7 | 0.00 | 0.00 | 0.00 | 54 | 1022.3 |
| 20260506061603 | 19 | 77 | 3.2 | 9.7 | 0.00 | 0.00 | 0.00 | 56 | 1022.4 |
| 20260506061102 | 19 | 77 | 3.2 | 9.7 | 0.00 | 0.00 | 0.00 | 57 | 1022.4 |
| 20260506060603 | 19 | 77 | 3.2 | 9.7 | 0.00 | 0.00 | 0.00 | 58 | 1022.5 |